timestamp,surface_pressure_avg,surface_temp_avg,battery_voltage,lat,long
2024-03-05 00:09:00+00:00,243.678,0.8,11.61,47.84626,-54.09684
2024-03-05 00:19:00+00:00,244.7213,0.79,11.61,47.84626,-54.09684
2024-03-05 00:29:00+00:00,242.2281,0.7,11.61,47.84626,-54.09684
2024-03-05 00:39:00+00:00,244.6631,0.7,11.61,47.84626,-54.09684
2024-03-05 00:49:00+00:00,247.1947,0.7,11.61,47.84626,-54.09684
2024-03-05 00:59:00+00:00,245.803,0.7,11.61,47.84626,-54.09684
2024-03-05 01:09:00+00:00,244.9997,0.7,11.61,47.84626,-54.09684
2024-03-05 01:19:00+00:00,249.5914,0.7,11.61,47.84626,-54.09684
2024-03-05 01:29:00+00:00,252.8881,0.7,11.61,47.84626,-54.09684
2024-03-05 01:39:00+00:00,255.4765,0.71,11.61,47.84626,-54.09684
2024-03-05 01:49:00+00:00,257.3197,0.73,11.61,47.84626,-54.09684
2024-03-05 01:59:00+00:00,258.2098,0.76,11.61,47.84626,-54.09684
2024-03-05 02:09:00+00:00,256.5064,0.76,11.61,47.84626,-54.09684
2024-03-05 02:19:00+00:00,257.0847,0.76,11.61,47.84626,-54.09684
2024-03-05 02:29:00+00:00,260.4097,0.76,11.61,47.84626,-54.09684
2024-03-05 02:39:00+00:00,263.5747,0.76,11.61,47.84626,-54.09684
2024-03-05 02:49:00+00:00,263.7597,0.76,11.61,47.84626,-54.09684
2024-03-05 02:59:00+00:00,267.9331,0.73,11.61,47.84626,-54.09684
2024-03-05 03:09:00+00:00,273.8597,0.7,11.61,47.84626,-54.09684
2024-03-05 03:19:00+00:00,280.9547,0.7,11.61,47.84626,-54.09684
2024-03-05 03:29:00+00:00,278.5214,0.7,11.61,47.84626,-54.09684
2024-03-05 03:39:00+00:00,279.1414,0.7,11.61,47.84626,-54.09684
2024-03-05 03:49:00+00:00,286.6014,0.7,11.61,47.84626,-54.09684
2024-03-05 03:59:00+00:00,290.593,0.7,11.61,47.84626,-54.09684
2024-03-05 04:09:00+00:00,287.413,0.7,11.61,47.84626,-54.09684
2024-03-05 04:19:00+00:00,290.3763,0.7,11.61,47.84626,-54.09684
2024-03-05 04:29:00+00:00,298.9696,0.7,11.61,47.84626,-54.09684
2024-03-05 04:39:00+00:00,303.0163,0.69,11.61,47.84626,-54.09684
2024-03-05 04:49:00+00:00,302.9865,0.68,11.61,47.84626,-54.09684
2024-03-05 04:59:00+00:00,304.9896,0.67,11.61,47.84626,-54.09684
2024-03-05 05:09:00+00:00,305.0131,0.65,11.61,47.84626,-54.09684
2024-03-05 05:19:00+00:00,303.4564,0.61,11.61,47.84626,-54.09684
2024-03-05 05:29:00+00:00,306.0847,0.6,11.61,47.84626,-54.09684
2024-03-05 05:39:00+00:00,308.623,0.61,11.61,47.84626,-54.09684
2024-03-05 05:49:00+00:00,309.7747,0.6,11.61,47.84626,-54.09684
2024-03-05 05:59:00+00:00,310.393,0.6,11.61,47.84626,-54.09684
2024-03-05 06:09:00+00:00,313.033,0.6,11.61,47.84626,-54.09684
2024-03-05 06:19:00+00:00,316.813,0.6,11.61,47.84626,-54.09684
2024-03-05 06:29:00+00:00,319.9713,0.6,11.61,47.84626,-54.09684
2024-03-05 06:39:00+00:00,320.6679,0.6,11.61,47.84626,-54.09684
2024-03-05 06:49:00+00:00,321.973,0.6,11.61,47.84626,-54.09684
2024-03-05 06:59:00+00:00,326.5913,0.6,11.61,47.84626,-54.09684
2024-03-05 07:09:00+00:00,327.2679,0.6,11.61,47.84626,-54.09684
2024-03-05 07:19:00+00:00,326.46299999999997,0.6,11.61,47.84626,-54.09684
2024-03-05 07:29:00+00:00,327.168,0.6,11.61,47.84626,-54.09684
2024-03-05 07:39:00+00:00,323.2263,0.6,11.61,47.84626,-54.09684
2024-03-05 07:49:00+00:00,322.313,0.6,11.61,47.84626,-54.09684
2024-03-05 07:59:00+00:00,323.0563,0.6,11.61,47.84626,-54.09684
2024-03-05 08:09:00+00:00,320.5114,0.6,11.61,47.84626,-54.09684
2024-03-05 08:19:00+00:00,312.2364,0.6,11.53,47.84626,-54.09684
2024-03-05 08:29:00+00:00,306.808,0.6,11.53,47.84626,-54.09684
2024-03-05 08:39:00+00:00,306.9281,0.6,11.53,47.84626,-54.09684
2024-03-05 08:49:00+00:00,303.5096,0.6,11.53,47.84626,-54.09684
2024-03-05 08:59:00+00:00,294.9464,0.61,11.53,47.84626,-54.09684
2024-03-05 09:09:00+00:00,288.2914,0.61,11.53,47.84626,-54.09684
2024-03-05 09:19:00+00:00,284.2731,0.64,11.53,47.84626,-54.09684
2024-03-05 09:29:00+00:00,277.6181,0.64,11.53,47.84626,-54.09684
2024-03-05 09:39:00+00:00,268.0497,0.61,11.53,47.84626,-54.09684
2024-03-05 09:49:00+00:00,264.4564,0.62,11.53,47.84626,-54.09684
2024-03-05 09:59:00+00:00,260.8114,0.64,11.53,47.84626,-54.09684
2024-03-05 10:09:00+00:00,253.4081,0.63,11.53,47.84626,-54.09684
2024-03-05 10:19:00+00:00,249.6048,0.64,11.53,47.84626,-54.09684
2024-03-05 10:29:00+00:00,249.0364,0.66,11.53,47.84626,-54.09684
2024-03-05 10:39:00+00:00,244.1397,0.65,11.53,47.84626,-54.09684
2024-03-05 10:49:00+00:00,237.528,0.66,11.53,47.84626,-54.09684
2024-03-05 10:59:00+00:00,234.3748,0.67,11.53,47.84626,-54.09684
2024-03-05 11:09:00+00:00,234.9331,0.68,11.53,47.84626,-54.09684
2024-03-05 11:19:00+00:00,232.9915,0.69,12.09,47.84626,-54.09684
2024-03-05 11:29:00+00:00,230.1898,0.68,12.09,47.84626,-54.09684
2024-03-05 11:39:00+00:00,228.7348,0.67,12.09,47.84626,-54.09684
2024-03-05 11:49:00+00:00,224.0847,0.68,12.09,47.84626,-54.09684
2024-03-05 11:59:00+00:00,224.2415,0.69,12.09,47.84626,-54.09684
2024-03-05 12:09:00+00:00,229.3531,0.69,12.09,47.84626,-54.09684
2024-03-05 12:19:00+00:00,227.3314,0.69,12.33,47.84626,-54.09684
2024-03-05 12:29:00+00:00,222.1614,0.67,12.33,47.84626,-54.09684
2024-03-05 12:39:00+00:00,226.5464,0.67,12.33,47.84626,-54.09684
2024-03-05 12:49:00+00:00,233.3848,0.67,12.33,47.84626,-54.09684
2024-03-05 12:59:00+00:00,228.3014,0.68,12.33,47.84626,-54.09684
2024-03-05 13:09:00+00:00,222.1431,0.69,12.33,47.84626,-54.09684
2024-03-05 13:19:00+00:00,227.0998,0.69,12.25,47.84626,-54.09684
2024-03-05 13:29:00+00:00,231.4198,0.67,12.25,47.84626,-54.09684
2024-03-05 13:39:00+00:00,227.4098,0.68,12.25,47.84626,-54.09684
2024-03-05 13:49:00+00:00,226.6181,0.69,12.25,47.84626,-54.09684
2024-03-05 13:59:00+00:00,230.0497,0.69,12.25,47.84626,-54.09684
2024-03-05 14:09:00+00:00,232.9381,0.7,12.25,47.84626,-54.09684
2024-03-05 14:19:00+00:00,230.6714,0.7,12.33,47.84626,-54.09684
2024-03-05 14:29:00+00:00,229.0931,0.7,12.33,47.84626,-54.09684
2024-03-05 14:39:00+00:00,231.5281,0.7,12.33,47.84626,-54.09684
2024-03-05 14:49:00+00:00,233.5631,0.7,12.33,47.84626,-54.09684
2024-03-05 14:59:00+00:00,229.8614,0.7,12.33,47.84626,-54.09684
2024-03-05 15:09:00+00:00,230.1898,0.73,12.33,47.84626,-54.09684
2024-03-05 15:19:00+00:00,235.8181,0.71,12.33,47.84626,-54.09684
2024-03-05 15:29:00+00:00,236.4981,0.74,12.33,47.84626,-54.09684
2024-03-05 15:39:00+00:00,232.9531,0.78,12.33,47.84626,-54.09684
2024-03-05 15:49:00+00:00,233.2498,0.8,12.33,47.84626,-54.09684
2024-03-05 15:59:00+00:00,235.6747,0.8,12.33,47.84626,-54.09684
2024-03-05 16:09:00+00:00,236.3981,0.83,12.33,47.84626,-54.09684
2024-03-05 16:19:00+00:00,236.1181,0.86,12.33,47.84626,-54.09684
2024-03-05 16:29:00+00:00,240.3897,0.87,12.33,47.84626,-54.09684
2024-03-05 16:39:00+00:00,244.6797,0.84,12.33,47.84626,-54.09684
2024-03-05 16:49:00+00:00,248.4731,0.83,12.33,47.84626,-54.09684
2024-03-05 16:59:00+00:00,251.2464,0.85,12.33,47.84626,-54.09684
2024-03-05 17:09:00+00:00,254.9381,0.88,12.33,47.84626,-54.09684
2024-03-05 17:19:01+00:00,258.2281,0.9,12.25,47.84626,-54.09684
2024-03-05 17:29:01+00:00,258.783,0.9,12.25,47.84626,-54.09684
2024-03-05 17:39:01+00:00,260.2448,0.9,12.25,47.84626,-54.09684
2024-03-05 17:49:01+00:00,262.3614,0.9,12.25,47.84626,-54.09684
2024-03-05 17:59:01+00:00,265.9431,0.9,12.25,47.84626,-54.09684
2024-03-05 18:09:01+00:00,266.7014,0.89,12.25,47.84626,-54.09684
2024-03-05 18:19:00+00:00,269.3513,0.87,12.09,47.84626,-54.09684
2024-03-05 18:29:00+00:00,273.3231,0.87,12.09,47.84626,-54.09684
2024-03-05 18:39:00+00:00,280.0214,0.85,12.09,47.84626,-54.09684
2024-03-05 18:49:00+00:00,278.7997,0.88,12.09,47.84626,-54.09684
2024-03-05 18:59:00+00:00,277.6781,0.85,12.09,47.84626,-54.09684
2024-03-05 19:09:00+00:00,279.6664,0.87,12.09,47.84626,-54.09684
2024-03-05 19:19:00+00:00,279.5665,0.86,12.01,47.84626,-54.09684
2024-03-05 19:29:00+00:00,277.6531,0.89,12.01,47.84626,-54.09684
2024-03-05 19:39:00+00:00,278.368,0.89,12.01,47.84626,-54.09684
2024-03-05 19:49:00+00:00,280.5781,0.89,12.01,47.84626,-54.09684
2024-03-05 19:59:00+00:00,276.6364,0.88,12.01,47.84626,-54.09684
2024-03-05 20:09:00+00:00,276.2214,0.81,12.01,47.84626,-54.09684
2024-03-05 20:19:00+00:00,278.9431,0.8,11.86,47.84626,-54.09684
2024-03-05 20:29:00+00:00,279.4797,0.8,11.86,47.84626,-54.09684
2024-03-05 20:39:00+00:00,275.2997,0.75,11.86,47.84626,-54.09684
2024-03-05 20:49:00+00:00,273.6431,0.76,11.86,47.84626,-54.09684
2024-03-05 20:59:00+00:00,271.2481,0.76,11.86,47.84626,-54.09684
2024-03-05 21:09:00+00:00,265.7647,0.72,11.86,47.84626,-54.09684
2024-03-05 21:19:00+00:00,264.8214,0.7,11.77,47.84626,-54.09684
2024-03-05 21:29:00+00:00,264.2448,0.7,11.77,47.84626,-54.09684
2024-03-05 21:39:00+00:00,257.5865,0.7,11.77,47.84626,-54.09684
2024-03-05 21:49:00+00:00,248.8598,0.7,11.77,47.84626,-54.09684
2024-03-05 21:59:00+00:00,248.7814,0.7,11.77,47.84626,-54.09684
2024-03-05 22:09:00+00:00,246.4664,0.7,11.77,47.84626,-54.09684
2024-03-05 22:19:00+00:00,237.4547,0.7,11.77,47.84626,-54.09684
2024-03-05 22:29:00+00:00,234.2598,0.7,11.77,47.84626,-54.09684
2024-03-05 22:39:00+00:00,238.3831,0.7,11.77,47.84626,-54.09684
2024-03-05 22:49:00+00:00,235.5297,0.7,11.77,47.84626,-54.09684
2024-03-05 22:59:00+00:00,227.0048,0.7,11.77,47.84626,-54.09684
2024-03-05 23:09:00+00:00,224.4731,0.69,11.77,47.84626,-54.09684
2024-03-05 23:19:00+00:00,222.5515,0.64,11.77,47.84626,-54.09684
2024-03-05 23:29:00+00:00,217.7498,0.63,11.77,47.84626,-54.09684
2024-03-05 23:39:00+00:00,216.2631,0.67,11.77,47.84626,-54.09684
2024-03-05 23:49:00+00:00,215.1431,0.68,11.77,47.84626,-54.09684
2024-03-05 23:59:00+00:00,206.7897,0.66,11.77,47.84626,-54.09684
